Date String (YYYY-MM-DD hh:mm:ss) UTC,Instrument flags,absolute air pressure of the measurement (hPa),sample flow rate (lpm),inlet stack bypass flow (lpm),air temperature of the measurement (°C),ambient temperature measured by the external sensor (°C),aerosol sample conditioner tube jacket temperature (°C),OPC LED temperature (°C),internal box temperature (°C),relative humidity of the measurement (%),span deviation,mass concentration of particles derived from Lorenz-Mie calculation of OPC scattering (μg/m³),mass concentration of particles derived from Lorenz-Mie calculation of OPC scattering (μg/m³),mass concentration of particles derived from Lorenz-Mie calculation of OPC scattering (μg/m³)
DateTimeUTC,F1_M11,P_M11,Q1_M11,Q2_M11,T1_M11,T2_M11,T3_M11,T4_M11,T5_M11,U1_M11,ZSPAN_M11,X0_M11,X2_M11,X1_M11
2024-01-21 00:00:00,SystemResetWarning,0824.1,5.00,000.00,020.1,019.4,000.0,028.4,021.4,14.9,0001.7,0026.67,0017.70,0016.82
2024-01-21 00:01:00,SystemResetWarning,0824.2,5.00,000.00,020.1,019.4,000.0,028.4,021.4,14.9,0001.8,0026.72,0017.63,0016.75
2024-01-21 00:02:00,SystemResetWarning,0824.2,4.99,000.00,020.1,019.4,000.0,028.4,021.4,14.9,0001.9,0026.54,0017.61,0016.71
2024-01-21 00:03:00,SystemResetWarning,0824.1,5.00,000.00,020.1,019.4,000.0,028.4,021.4,14.8,0002.1,0026.24,0017.55,0016.66
2024-01-21 00:04:00,SystemResetWarning,0824.1,5.01,000.00,020.1,019.4,000.0,028.4,021.4,14.8,0002.2,0025.00,0017.47,0016.59
2024-01-21 00:05:00,SystemResetWarning,0824.1,5.00,000.00,020.1,019.4,000.0,028.4,021.4,14.8,0002.3,0024.76,0017.42,0016.51
2024-01-21 00:06:00,SystemResetWarning,0824.2,4.99,000.00,020.1,019.5,000.0,028.4,021.4,14.8,0002.3,0023.50,0017.35,0016.43
2024-01-21 00:07:00,SystemResetWarning,0824.1,5.00,000.00,020.1,019.5,000.0,028.4,021.4,14.8,0002.1,0022.88,0017.22,0016.35
2024-01-21 00:08:00,SystemResetWarning,0824.0,4.99,000.00,020.1,019.5,000.0,028.4,021.4,14.8,0002.0,0022.54,0017.17,0016.29
2024-01-21 00:09:00,SystemResetWarning,0824.0,5.00,000.00,020.1,019.5,000.0,028.4,021.4,14.8,0001.9,0022.09,0017.09,0016.24
2024-01-21 00:10:00,SystemResetWarning,0824.0,5.01,000.00,020.1,019.5,000.0,028.4,021.4,14.8,0002.0,0022.36,0017.09,0016.21
2024-01-21 00:11:00,SystemResetWarning,0824.0,5.01,000.00,020.2,019.5,000.0,028.4,021.5,14.8,0002.4,0022.54,0017.18,0016.24
2024-01-21 00:12:00,SystemResetWarning,0824.0,5.00,000.00,020.2,019.5,000.0,028.5,021.5,14.8,0002.2,0022.69,0017.27,0016.25
2024-01-21 00:13:00,SystemResetWarning,0824.2,4.99,000.00,020.2,019.5,000.0,028.5,021.5,14.8,0002.1,0022.83,0017.27,0016.25
2024-01-21 00:14:00,SystemResetWarning,0824.2,4.99,000.00,020.2,019.5,000.0,028.5,021.5,14.8,0002.0,0022.86,0017.27,0016.25
2024-01-21 00:15:00,SystemResetWarning,0824.2,5.00,000.00,020.2,019.5,000.0,028.5,021.5,14.9,0001.9,0022.97,0017.31,0016.26
2024-01-21 00:16:00,SystemResetWarning,0824.2,5.01,000.00,020.2,019.6,000.0,028.5,021.5,14.9,0001.9,0023.05,0017.32,0016.28
2024-01-21 00:17:00,SystemResetWarning,0824.1,5.01,000.00,020.2,019.6,000.0,028.5,021.5,15.0,0002.2,0023.45,0017.33,0016.29
2024-01-21 00:18:00,SystemResetWarning,0824.2,4.99,000.00,020.2,019.6,000.0,028.5,021.5,15.0,0002.5,0023.88,0017.36,0016.28
2024-01-21 00:19:00,SystemResetWarning,0824.2,4.99,000.00,020.2,019.6,000.0,028.5,021.5,15.1,0002.7,0024.07,0017.37,0016.27
2024-01-21 00:20:00,SystemResetWarning,0824.0,5.00,000.00,020.2,019.6,000.0,028.5,021.5,15.1,0002.8,0024.34,0017.42,0016.29
2024-01-21 00:21:00,SystemResetWarning,0824.0,5.00,000.00,020.2,019.6,000.0,028.5,021.5,15.1,0002.8,0024.15,0017.41,0016.31
2024-01-21 00:22:00,SystemResetWarning,0824.0,5.00,000.00,020.2,019.6,000.0,028.5,021.5,15.1,0003.0,0023.87,0017.32,0016.30
2024-01-21 00:23:00,SystemResetWarning,0824.0,5.01,000.00,020.2,019.6,000.0,028.5,021.5,15.1,0003.3,0024.05,0017.26,0016.31
2024-01-21 00:24:00,SystemResetWarning,0824.0,5.01,000.00,020.2,019.6,000.0,028.5,021.5,15.1,0003.4,0024.30,0017.22,0016.29
2024-01-21 00:25:00,SystemResetWarning,0824.0,5.00,000.00,020.2,019.6,000.0,028.5,021.5,15.1,0003.4,0024.55,0017.24,0016.30
2024-01-21 00:26:00,SystemResetWarning,0824.0,5.00,000.00,020.2,019.6,000.0,028.5,021.5,15.1,0003.4,0024.59,0017.23,0016.30
2024-01-21 00:27:00,SystemResetWarning,0824.0,5.00,000.00,020.2,019.6,000.0,028.5,021.6,15.1,0003.3,0024.85,0017.26,0016.29
2024-01-21 00:28:00,SystemResetWarning,0824.0,5.00,000.00,020.2,019.6,000.0,028.6,021.6,15.1,0003.3,0024.91,0017.30,0016.29
2024-01-21 00:29:00,SystemResetWarning,0824.0,4.99,000.00,020.2,019.6,000.0,028.6,021.5,15.1,0003.2,0025.08,0017.31,0016.31
2024-01-21 00:30:00,SystemResetWarning,0824.0,5.00,000.00,020.2,019.6,000.0,028.6,021.5,15.1,0002.6,0025.13,0017.29,0016.32
2024-01-21 00:31:00,SystemResetWarning,0824.0,5.00,000.00,020.2,019.6,000.0,028.6,021.5,15.1,0002.4,0025.06,0017.28,0016.30
2024-01-21 00:32:00,SystemResetWarning,0824.0,5.01,000.00,020.2,019.6,000.0,028.6,021.5,15.1,0002.3,0025.29,0017.28,0016.27
2024-01-21 00:33:00,SystemResetWarning,0824.0,5.00,000.00,020.2,019.6,000.0,028.6,021.5,15.1,0001.9,0025.73,0017.34,0016.31
2024-01-21 00:34:00,SystemResetWarning,0824.0,5.01,000.00,020.2,019.6,000.0,028.6,021.5,15.1,0001.9,0025.57,0017.34,0016.31
2024-01-21 00:35:00,SystemResetWarning,0824.0,5.01,000.00,020.2,019.6,000.0,028.6,021.6,15.1,0001.7,0025.70,0017.39,0016.32
2024-01-21 00:36:00,SystemResetWarning,0824.0,5.00,000.00,020.2,019.6,000.0,028.6,021.6,15.0,0001.4,0026.30,0017.44,0016.32
2024-01-21 00:37:00,SystemResetWarning,0824.0,5.00,000.00,020.3,019.6,000.0,028.6,021.6,15.0,0001.2,0026.76,0017.46,0016.33
2024-01-21 00:38:00,SystemResetWarning,0824.0,4.99,000.00,020.3,019.6,000.0,028.6,021.6,15.0,0001.1,0026.55,0017.46,0016.34
2024-01-21 00:39:00,SystemResetWarning,0824.0,4.99,000.00,020.3,019.6,000.0,028.6,021.6,15.0,0000.9,0026.57,0017.48,0016.36
2024-01-21 00:40:00,SystemResetWarning,0824.0,5.01,000.00,020.3,019.6,000.0,028.6,021.6,15.0,0001.0,0026.33,0017.53,0016.37
2024-01-21 00:41:00,SystemResetWarning,0824.0,5.00,000.00,020.3,019.7,000.0,028.6,021.6,15.0,0001.8,0026.64,0017.57,0016.39
2024-01-21 00:42:00,SystemResetWarning,0824.0,5.01,000.00,020.3,019.7,000.0,028.6,021.6,15.0,0002.0,0026.56,0017.53,0016.40
2024-01-21 00:43:00,SystemResetWarning,0824.0,5.00,000.00,020.3,019.7,000.0,028.6,021.6,15.0,0001.9,0026.28,0017.55,0016.43
2024-01-21 00:44:00,SystemResetWarning,0824.0,5.00,000.00,020.3,019.6,000.0,028.6,021.5,15.0,0002.1,0026.16,0017.53,0016.41
2024-01-21 00:45:00,SystemResetWarning,0824.0,5.00,000.00,020.3,019.6,000.0,028.6,021.5,14.9,0001.7,0026.13,0017.56,0016.41
2024-01-21 00:46:00,SystemResetWarning,0824.1,5.00,000.00,020.2,019.6,000.0,028.6,021.5,15.0,0002.0,0026.61,0017.58,0016.41
2024-01-21 00:47:00,SystemResetWarning,0824.1,5.00,000.00,020.2,019.6,000.0,028.6,021.5,15.0,0002.1,0027.38,0017.61,0016.41
2024-01-21 00:48:00,SystemResetWarning,0824.1,5.00,000.00,020.2,019.6,000.0,028.6,021.4,15.0,0002.4,0027.57,0017.64,0016.41
2024-01-21 00:49:00,SystemResetWarning,0824.2,5.00,000.00,020.2,019.5,000.0,028.6,021.4,15.1,0002.3,0028.18,0017.60,0016.43
2024-01-21 00:50:00,SystemResetWarning,0824.2,5.00,000.00,020.2,019.5,000.0,028.6,021.5,15.1,0002.5,0027.99,0017.58,0016.44
2024-01-21 00:51:00,SystemResetWarning,0824.0,5.01,000.00,020.2,019.5,000.0,028.6,021.5,15.1,0002.3,0027.63,0017.53,0016.43
2024-01-21 00:52:00,SystemResetWarning,0824.0,5.00,000.00,020.2,019.6,000.0,028.6,021.5,15.1,0001.6,0027.25,0017.52,0016.43
2024-01-21 00:53:00,SystemResetWarning,0824.0,5.00,000.00,020.2,019.5,000.0,028.6,021.5,15.1,0001.2,0027.39,0017.57,0016.45
2024-01-21 00:54:00,SystemResetWarning,0824.0,5.00,000.00,020.2,019.5,000.0,028.6,021.5,15.1,0001.1,0027.58,0017.61,0016.47
2024-01-21 00:55:00,SystemResetWarning,0824.0,5.00,000.00,020.2,019.5,000.0,028.6,021.4,15.1,0001.0,0027.49,0017.60,0016.47
2024-01-21 00:56:00,SystemResetWarning,0824.0,5.00,000.00,020.2,019.5,000.0,028.6,021.5,15.0,0001.1,0028.66,0017.58,0016.47
2024-01-21 00:57:00,SystemResetWarning,0824.0,5.00,000.00,020.2,019.5,000.0,028.6,021.5,15.0,0001.1,0028.28,0017.57,0016.49
2024-01-21 00:58:00,SystemResetWarning,0824.2,5.00,000.00,020.2,019.5,000.0,028.6,021.5,15.0,0001.4,0027.09,0017.58,0016.52
2024-01-21 00:59:00,SystemResetWarning,0824.2,5.00,000.00,020.2,019.6,000.0,028.6,021.5,15.0,0001.4,0025.86,0017.52,0016.53
